Chadron, NE

11:18 AM MST on February 13, 2016 (GMT -0700)
Chadron Municipal

Weather History for KCDR - March, 2013

Change the Weather History Date:

Tuesday, March 26, 2013

  Actual Average Record
Temperature  
Mean Temperature 34 °F 39 °F  
Max Temperature 55 °F 54 °F 82 °F (2012)
Min Temperature 12 °F 24 °F -5 °F (1965)
Degree Days  
Heating Degree Days 31 26  
Month to date heating degree days 770 778  
Since 1 July heating degree days 5666 6030  
Cooling Degree Days 0 0  
Month to date cooling degree days 0 0  
Year to date cooling degree days 0 0  
Moisture  
Dew Point 14 °F    
Average Humidity 54    
Maximum Humidity 91    
Minimum Humidity 16    
Precipitation  
Precipitation 0.00 in 0.04 in 0.46 in (2003)
Month to date precipitation 0.18 1.01  
Year to date precipitation 1.03 1.98  
Sea Level Pressure  
Sea Level Pressure 30.11 in    
Wind  
Wind Speed 5 mph (West)    
Max Wind Speed 14 mph    
Max Gust Speed 18 mph    
Visibility 10 miles    
Events      
T = Trace of Precipitation, MM = Missing Value Source: NWS Daily Summary

Daily Weather History Graph

Daily Weather History Graph

Search for Another Location

Airport or City:

Trip Planner

Search our weather history database for the weather conditions in past years. The results will help you decide how hot, cold, wet, or windy it might be!

Date:

Astronomy

Mar. 26, 2013 Rise Set
Actual Time 6:44 AM MDT 7:12 PM MDT
Civil Twilight 6:16 AM MDT 7:40 PM MDT
Nautical Twilight 5:42 AM MDT 8:13 PM MDT
Astronomical Twilight 5:08 AM MDT 8:48 PM MDT
Moon 6:51 PM MDT (3/26) 6:02 AM MDT (3/26)
Length of Visible Light 13h 24m
Length of Day
12h 27m
Waxing Gibbous, 99% of the Moon is Illuminated
Mar 26
Waxing Gibbous
Mar 27
Full
Apr 2
Last Quarter
Apr 10
New
Apr 18
First Quarter

Hourly Weather History & Observations

Time (MDT) Temp. Windchill Dew Point Humidity Pressure Visibility Wind Dir Wind Speed Gust Speed Precip Events Conditions
1:53 AM 24.1 °F 19.7 °F 10.0 °F 55% 30.26 in 10.0 mi West 3.5 mph - N/A   Clear
2:53 AM 24.1 °F - 10.9 °F 57% 30.22 in 10.0 mi Calm Calm - N/A   Clear
3:53 AM 23.0 °F - 10.9 °F 60% 30.20 in 10.0 mi Calm Calm - N/A   Clear
4:53 AM 12.9 °F - 8.1 °F 81% 30.20 in 10.0 mi Calm Calm - N/A   Clear
5:53 AM 12.9 °F - 7.0 °F 77% 30.20 in 10.0 mi Calm Calm - N/A   Clear
6:53 AM 18.0 °F 9.8 °F 9.0 °F 68% 30.18 in 9.0 mi SSW 5.8 mph - N/A   Clear
7:53 AM 25.0 °F - 15.1 °F 66% 30.18 in 8.0 mi Calm Calm - N/A   Clear
8:53 AM 33.1 °F 28.7 °F 16.0 °F 50% 30.15 in 9.0 mi WNW 4.6 mph - N/A   Clear
9:53 AM 41.0 °F 35.2 °F 16.0 °F 36% 30.11 in 9.0 mi WSW 9.2 mph - N/A   Clear
10:53 AM 46.9 °F - 14.0 °F 27% 30.07 in 10.0 mi SW 10.4 mph - N/A   Clear
11:53 AM 48.9 °F - 12.9 °F 24% 30.05 in 10.0 mi SW 8.1 mph - N/A   Clear
12:53 PM 48.9 °F - 10.9 °F 22% 30.03 in 10.0 mi Variable 3.5 mph 16.1 mph N/A   Clear
1:53 PM 52.0 °F - 10.9 °F 19% 30.01 in 10.0 mi Variable 6.9 mph - N/A   Clear
2:53 PM 54.0 °F - 9.0 °F 17% 29.99 in 10.0 mi Variable 6.9 mph 18.4 mph N/A   Clear
3:53 PM 52.0 °F - 12.9 °F 21% 30.00 in 10.0 mi NNW 10.4 mph - N/A   Mostly Cloudy
4:53 PM 51.1 °F - 10.9 °F 20% 30.02 in 10.0 mi NNW 13.8 mph 17.3 mph N/A   Overcast
5:53 PM 52.0 °F - 6.1 °F 16% 30.03 in 10.0 mi NNW 5.8 mph - N/A   Clear
6:53 PM 44.1 °F 37.7 °F 25.0 °F 47% 30.07 in 10.0 mi NNE 12.7 mph - N/A   Clear
7:53 PM 35.1 °F 27.9 °F 24.1 °F 64% 30.11 in 10.0 mi SE 9.2 mph - N/A   Clear
8:53 PM 33.1 °F 28.7 °F 21.9 °F 64% 30.12 in 10.0 mi NE 4.6 mph - N/A   Clear
9:53 PM 30.0 °F 25.2 °F 21.0 °F 69% 30.13 in 10.0 mi NNW 4.6 mph - N/A   Clear
10:53 PM 23.0 °F 18.4 °F 19.0 °F 85% 30.14 in 8.0 mi SW 3.5 mph - N/A   Clear
11:53 PM 19.9 °F 13.4 °F 17.1 °F 89% 30.15 in 8.0 mi West 4.6 mph - N/A   Clear